[[[{"header":{"parameterUnit":"kt","parameterCategory":2,"dx":1,"dy":1,"la1":30.253999710083008,"la2":30.299108505249023,"lo1":-89.0895004272461,"lo2":-89.04439544677734,"nx":28,"ny":28,"refTime":"2022-09-22T21:00:00:Z","depth":0,"parameterNumber":1,"parameterNumberName":"U-component_of_WINDS"},"data":[4.4005,4.4199,4.4275,4.4532,4.4644,4.4833,4.4925,4.5052,4.5174,4.541,4.5559,4.5658,4.5811,4.601,4.6177,4.6218,4.6282,4.6294,4.6339,4.6214,4.6202,4.619,4.6147,4.6308,4.6308,4.6456,4.6457,4.6458,4.3903,4.4015,4.4174,4.4379,4.4516,4.4549,4.4716,4.4828,4.4998,4.515,4.5302,4.5517,4.5698,4.5851,4.6038,4.6132,4.6159,4.6177,4.6169,4.6193,4.6063,4.6016,4.6152,4.6152,4.6152,4.6152,4.6152,4.6152,4.3737,4.3851,4.4019,4.4193,4.4318,4.4456,4.4578,4.4696,4.4854,4.5057,4.5121,4.5314,4.5483,4.5748,4.5857,4.6012,4.6006,4.6051,4.6061,4.6069,4.6067,4.5836,4.6048,4.6048,4.6048,4.6048,4.6048,0,4.3638,4.3694,4.3852,4.4033,4.4164,4.4313,4.4462,4.4541,4.4688,4.4813,4.5,4.5122,4.5362,4.5548,4.5743,4.5849,4.5897,4.5913,4.5943,4.5911,4.5857,4.5884,4.5665,4.5905,4.5904,4.5903,4.5903,4.5903,4.3472,4.3598,4.3813,4.3914,4.4014,4.4177,4.4289,4.441,4.4524,4.4727,4.4824,4.5012,4.5169,4.5459,4.5598,4.578,4.5805,4.5887,4.5832,4.5797,4.5802,4.5791,4.5803,4.5893,4.5894,4.5895,4.5896,0,4.3371,4.3496,4.3717,4.3918,4.3973,4.4099,4.4272,4.4393,4.4495,4.4676,4.4726,4.4887,4.5071,4.5198,4.5435,4.5496,4.5706,4.5728,4.5647,4.5656,4.574,4.5729,4.5998,4.6038,4.5877,4.5878,4.588,0,4.3277,4.3439,4.3616,4.3737,4.3921,4.4038,4.4217,4.4322,4.4469,4.4613,4.4689,4.4822,4.4965,4.5118,4.5208,4.5403,4.5449,4.5506,4.5527,4.5497,4.5489,4.5558,4.5548,4.5576,4.5575,4.5573,4.5572,0,4.3102,4.3389,4.3587,4.3672,4.3904,4.3995,4.4097,4.4263,4.4373,4.4537,4.461,4.4794,4.4894,4.5036,4.5149,4.5106,4.5392,4.5358,4.545,4.5446,4.5503,4.5497,4.5707,4.557,4.557,4.557,4.5569,0,4.3044,4.3206,4.3476,4.367,4.374,4.3873,4.4059,4.4202,4.4373,4.4437,4.4568,4.4633,4.4817,4.4772,4.5026,4.4938,4.5033,4.5106,4.5115,4.5135,4.5081,4.5177,4.5367,4.5389,4.5158,4.5155,4.5152,0,4.2807,4.3114,4.3216,4.3471,4.363,4.3701,4.3851,4.4,4.4099,4.4249,4.4359,4.4531,4.4525,4.4597,4.4706,4.4827,4.4942,4.4816,4.503,4.5036,4.4977,4.5155,4.5148,4.5312,4.511,4.5115,4.5118,0,4.2638,4.2918,4.2957,4.3058,4.3273,4.3408,4.3581,4.3776,4.3869,4.403,4.4177,4.4425,4.4429,4.4547,4.462,4.4727,4.4868,4.4718,4.4724,4.4737,4.5101,4.5094,4.5121,4.4893,4.4899,4.4903,4.5085,0,4.2515,4.2686,4.2797,4.3019,4.3144,4.3313,4.3445,4.3559,4.3615,4.3715,4.3936,4.4095,4.4295,4.4362,4.442,4.4625,4.461,4.4614,4.4578,4.4695,4.4757,4.4784,4.4473,4.4473,4.4472,4.4472,0,0,4.2254,4.2502,4.2609,4.278,4.289,4.2962,4.313,4.3248,4.3483,4.3559,4.354,4.391,4.404,4.4294,4.4341,4.4425,4.4473,4.4428,4.4639,4.4657,4.4674,4.4739,4.4764,4.4472,4.4472,4.4472,4.4472,0,4.2235,4.2364,4.2528,4.2654,4.2844,4.2942,4.2981,4.3183,4.3255,4.3473,4.353,4.3679,4.3974,4.4102,4.4206,4.4401,4.4435,4.4453,4.451,4.4632,4.465,4.4667,4.4734,4.4756,4.4471,4.4471,4.4471,0,4.2089,4.2237,4.2331,4.2588,4.2713,4.2877,4.2871,4.3045,4.3168,4.324,4.3455,4.3561,4.3746,4.3971,4.4077,4.4063,4.4393,4.4315,4.432,4.4334,4.4458,4.448,4.4499,4.4243,4.4241,4.424,0,0,4.2055,4.2215,4.2411,4.2594,4.2668,4.2817,4.2918,4.2984,4.3147,4.3212,4.3349,4.3507,4.368,4.3791,4.396,4.4188,4.4235,4.4281,4.4292,4.43,4.4318,4.4444,4.4466,4.4235,4.4235,4.4235,0,0,4.2039,4.2272,4.2299,4.2527,4.2679,4.2885,4.2992,4.3031,4.3196,4.3191,4.3314,4.3362,4.3575,4.3678,4.3593,4.3949,4.3911,4.3934,4.3873,4.3888,4.3899,4.3869,4.3609,0,0,0,0,0,4.2087,4.2243,4.2265,4.2323,4.2649,4.2872,4.2915,4.3018,4.2987,4.307,4.319,4.3222,4.3656,4.3584,4.3641,4.3734,4.4168,4.418,4.4191,4.4167,4.4181,4.4194,0,0,0,0,0,0,4.211,4.2181,4.2261,4.2471,4.2546,4.2868,4.2839,4.2871,4.2981,4.2984,4.3197,4.3229,4.3322,4.3562,4.3612,4.3698,4.3593,4.4173,4.4183,4.4192,4.4172,4.4184,4.4194,0,0,0,0,0,4.213,4.2187,4.2683,4.247,4.2535,4.2709,4.2834,4.2861,4.2948,4.3135,4.3167,4.3015,4.3322,4.3371,4.3592,4.3673,4.3559,4.3577,4.4179,4.4187,4.4194,4.4177,0,0,0,0,0,0,4.2144,4.2214,4.2698,4.2722,4.2418,4.2693,4.2739,4.2851,4.3095,4.3128,4.2958,4.2957,4.3324,4.3361,4.3399,4.3658,4.3531,4.355,4.3562,4.4185,4.4191,4.4197,0,0,0,0,0,0,4.2184,4.2233,4.2711,4.264,4.2656,4.2677,4.2719,4.2923,4.3097,4.2905,4.2911,4.2955,4.3268,4.3355,4.3385,4.3699,4.351,4.3528,4.354,4.3548,4.419,4.4195,0,0,0,0,0,0,4.2206,4.2249,4.2634,4.2647,4.2661,4.2934,4.286,4.319,4.3033,4.2893,4.3022,4.3017,4.3262,4.3293,4.3375,4.3676,4.3693,4.3511,4.3523,4.3532,4.3537,0,0,0,0,0,0,0,4.2225,4.1916,4.2558,4.2653,4.2665,4.294,4.2947,4.2953,4.3032,4.3027,4.3023,4.3019,4.341,4.3429,4.3448,4.3658,0,0,4.3509,4.3518,0,0,0,0,0,0,0,0,4.19,4.1912,4.2559,4.2564,4.2568,4.2941,4.2947,4.2952,4.3031,4.3027,4.3024,4.3021,4.3415,4.343,4.3446,0,0,0,0,0,0,0,0,0,0,0,0,0,0,0,4.2559,4.2563,0,4.2942,4.2946,4.2951,4.303,4.3028,4.3025,4.3022,4.3419,4.3432,4.3445,0,0,0,0,0,0,0,0,0,0,0,0,0,0,0,0,0,0,0,0,0,0,0,0,0,0,0,0,0,0,0,0,0,0,0,0,0,0,0,0,0,0,0,0,0,0,0,0,0,0,0,0,0,0,0,0,0,0,0,0,0,0,0,0,0,0,0,0,0]}],[{"header":{"parameterUnit":"kt","parameterCategory":2,"dx":1,"dy":1,"la1":30.253999710083008,"la2":30.299108505249023,"lo1":-89.0895004272461,"lo2":-89.04439544677734,"nx":28,"ny":28,"refTime":"2022-09-22T21:00:00:Z","depth":0,"parameterNumber":2,"parameterNumberName":"V-component_of_WINDS"},"data":[6.1039,6.1067,6.1053,6.1079,6.1071,6.1086,6.1087,6.1086,6.1083,6.1099,6.1105,6.1095,6.1085,6.109,6.1096,6.1091,6.1093,6.1113,6.1103,6.1029,6.1017,6.1006,6.0997,6.1115,6.1115,6.1181,6.1181,6.1182,6.0983,6.0976,6.0986,6.0986,6.0995,6.0967,6.0966,6.0974,6.0988,6.0984,6.099,6.1003,6.1012,6.0996,6.1001,6.1013,6.1,6.1016,6.1013,6.1011,6.0932,6.0923,6.1026,6.1026,6.1026,6.1026,6.1026,6.1026,6.0878,6.0896,6.0888,6.0899,6.0896,6.0896,6.0911,6.0897,6.0907,6.0911,6.0894,6.091,6.0903,6.0903,6.09,6.0911,6.0891,6.0904,6.0906,6.0909,6.0913,6.0814,6.0912,6.0912,6.0912,6.0911,6.0911,0,6.0796,6.0783,6.0792,6.0797,6.0804,6.0807,6.0807,6.0816,6.0784,6.0794,6.0806,6.0811,6.082,6.083,6.0832,6.0826,6.0797,6.0794,6.0802,6.0808,6.0813,6.0807,6.0676,6.079,6.0789,6.0788,6.0788,6.0787,6.0685,6.0709,6.0695,6.0703,6.07,6.0714,6.072,6.069,6.0697,6.0693,6.071,6.072,6.0726,6.0748,6.0731,6.0738,6.0723,6.0768,6.0724,6.073,6.072,6.0717,6.0718,6.0776,6.0777,6.0778,6.0779,0,6.0623,6.0601,6.0634,6.0617,6.0614,6.0641,6.0626,6.0643,6.0628,6.0649,6.0653,6.0628,6.0641,6.0617,6.0627,6.0614,6.0654,6.0641,6.0655,6.065,6.0685,6.0681,6.0809,6.0823,6.0705,6.0706,6.0707,0,6.0518,6.0552,6.0516,6.0536,6.0571,6.054,6.0576,6.0566,6.056,6.0577,6.0541,6.0557,6.0524,6.0536,6.0517,6.0546,6.0549,6.0539,6.0533,6.054,6.0541,6.0541,6.0534,6.0522,6.0522,6.0521,6.0521,0,6.0421,6.0443,6.0476,6.0477,6.0463,6.0479,6.0474,6.0467,6.0473,6.0477,6.048,6.0488,6.0491,6.0497,6.0471,6.0442,6.0508,6.0462,6.0497,6.0498,6.051,6.0509,6.0632,6.052,6.052,6.0519,6.0519,0,6.0332,6.0337,6.0391,6.0376,6.0383,6.0406,6.041,6.0425,6.042,6.0409,6.0412,6.0384,6.041,6.0366,6.04,6.0368,6.0374,6.0367,6.0369,6.0367,6.0317,6.0386,6.0508,6.0518,6.0369,6.0368,6.0367,0,6.0224,6.0273,6.0246,6.0298,6.0316,6.0272,6.0297,6.0295,6.0282,6.0295,6.0281,6.0297,6.0259,6.026,6.0281,6.0266,6.0307,6.026,6.0276,6.0277,6.0275,6.0388,6.0411,6.0485,6.035,6.0352,6.0353,0,6.0138,6.0121,6.0132,6.0131,6.0123,6.0139,6.0169,6.0178,6.0187,6.019,6.0212,6.0236,6.0206,6.021,6.0188,6.0211,6.0278,6.0177,6.0176,6.0193,6.0341,6.0362,6.0375,6.0259,6.0261,6.0262,6.034,0,6.0,6.0023,6.0054,6.0055,6.0064,6.0096,6.0069,6.0082,6.006,6.0045,6.0079,6.0071,6.008,6.009,6.0069,6.013,6.0115,6.0085,6.0037,6.0113,6.0138,6.0148,6.0002,6.0001,5.9999,5.9998,0,0,5.9901,5.9932,5.9902,5.993,5.9935,5.9889,5.9925,5.9926,5.9927,5.9931,5.9905,5.9937,5.9932,5.9975,5.9997,6.0002,6.001,5.9984,6.0078,6.0087,6.0095,6.0122,6.0134,5.9996,5.9995,5.9995,5.9995,0,5.9844,5.9842,5.9879,5.9878,5.9874,5.9857,5.9867,5.9855,5.9847,5.9882,5.9842,5.986,5.9888,5.9886,5.9889,5.998,5.9947,5.9985,6.0041,6.0066,6.0077,6.0086,6.0115,6.0126,5.9991,5.9992,5.9992,0,5.9751,5.9743,5.9759,5.977,5.9768,5.9789,5.9733,5.976,5.9775,5.9722,5.9757,5.9749,5.9746,5.9793,5.9813,5.9789,5.9892,5.9856,5.9864,5.9864,5.9887,5.99,5.9912,5.9759,5.9758,5.9757,0,0,5.9705,5.9727,5.9708,5.9756,5.9757,5.9733,5.9742,5.972,5.9719,5.9719,5.9708,5.9707,5.9722,5.9733,5.9746,5.9802,5.9797,5.9829,5.984,5.9849,5.9854,5.988,5.9893,5.9755,5.9755,5.9755,0,0,5.9683,5.9663,5.9641,5.9693,5.9693,5.9678,5.9708,5.9679,5.9689,5.9682,5.9646,5.9644,5.9688,5.9682,5.9649,5.9728,5.9682,5.9689,5.9729,5.9743,5.9754,5.9753,5.9589,0,0,0,0,0,5.9611,5.9665,5.9645,5.965,5.9665,5.9689,5.9691,5.9663,5.963,5.9654,5.964,5.9606,5.9656,5.9626,5.9631,5.9667,5.972,5.9726,5.9732,5.9797,5.9811,5.9823,0,0,0,0,0,0,5.9612,5.9618,5.9644,5.9631,5.9634,5.9687,5.9625,5.9619,5.9626,5.9619,5.961,5.9606,5.9582,5.9622,5.9627,5.9661,5.9588,5.9723,5.9728,5.9732,5.9802,5.9814,5.9824,0,0,0,0,0,5.9613,5.9618,5.965,5.963,5.9633,5.9608,5.9623,5.9617,5.9622,5.9601,5.9596,5.96,5.9584,5.9586,5.9625,5.966,5.9584,5.9586,5.9726,5.973,5.9734,5.9808,0,0,0,0,0,0,5.9614,5.9613,5.965,5.965,5.9607,5.9605,5.9603,5.9616,5.9603,5.9599,5.959,5.9584,5.9586,5.9587,5.9589,5.9661,5.9581,5.9583,5.9584,5.9729,5.9732,5.9735,0,0,0,0,0,0,5.961,5.9613,5.965,5.9623,5.9619,5.9602,5.96,5.963,5.9604,5.9592,5.9587,5.9587,5.9583,5.9588,5.959,5.9636,5.9579,5.958,5.9582,5.9583,5.9732,5.9734,0,0,0,0,0,0,5.9611,5.9613,5.9623,5.962,5.9617,5.9611,5.9627,5.9644,5.9581,5.9593,5.9574,5.9571,5.9585,5.9585,5.959,5.9637,5.9636,5.9579,5.958,5.9581,5.9581,0,0,0,0,0,0,0,5.9611,5.9601,5.9652,5.9618,5.9615,5.9647,5.9647,5.9647,5.958,5.9578,5.9575,5.9573,5.9567,5.957,5.9572,5.9637,0,0,5.9578,5.9579,0,0,0,0,0,0,0,0,5.9599,5.9601,5.9652,5.9652,5.9652,5.9647,5.9647,5.9647,5.958,5.9578,5.9575,5.9574,5.9568,5.957,5.9571,0,0,0,0,0,0,0,0,0,0,0,0,0,0,0,5.9652,5.9652,0,5.9647,5.9647,5.9647,5.9579,5.9578,5.9576,5.9574,5.9569,5.957,5.9571,0,0,0,0,0,0,0,0,0,0,0,0,0,0,0,0,0,0,0,0,0,0,0,0,0,0,0,0,0,0,0,0,0,0,0,0,0,0,0,0,0,0,0,0,0,0,0,0,0,0,0,0,0,0,0,0,0,0,0,0,0,0,0,0,0,0,0,0,0]}]]]